Location: Lombard
(41.8800°N, 88.0080°W)
Time: 13:16:55
(UTC-06:00)

Transit 4A - Pass Details

Date: 02 December 2023
Orbit: 870 x 973 km, 66.8° (Epoch: 03 March)

Event Time Altitude Azimuth Distance (km) Brightness Sun altitude
Rises 18:29:59 0° 152° (SSE) 3,652 10.8 -23.3°
Enters shadow 18:30:09 - 151° (SSE) 3,606 10.8 -23.3°
Reaches altitude 10° 18:34:13 10° 125° (SE) 2,713 - -24.1°
Maximum altitude 18:36:45 13° 101° (E) 2,524 - -24.5°
Drops below altitude 10° 18:39:18 10° 77° (ENE) 2,714 - -25.0°
Sets 18:43:31 0° 50° (NE) 3,655 - -25.8°
